Location: Famechon
(49.7599°N, 2.0615°E)
Time: 19:26:14
(UTC+00:00)

CZ-4C R/B - Pass Details

Date: 03 February 2023
Orbit: 456 x 612 km, 98.1° (Epoch: 25 March)

Event Time Altitude Azimuth Distance (km) Brightness Sun altitude
Rises 18:07:27 0° 15° (NNE) 2,725 6.6 -12.8°
Reaches altitude 10° 18:09:39 10° 18° (NNE) 1,799 5.7 -13.1°
Maximum altitude 18:13:30 73° 103° (ESE) 544 3.1 -13.7°
Drops below altitude 10° 18:17:08 10° 189° (S) 1,692 6.0 -14.3°
Sets 18:19:09 0° 191° (S) 2,546 7.0 -14.6°
